Main page
METAR-TAF:

METAR-TAF

Airports :

Albertus Airport

Freeport, Illinois, United States

latitude: 42-14-47N, longitude: 089-34-56W, elevation: 859 ft

Current weather observation

The report was made 29 minutes ago, at 15:55 UTC
Wind 13 mph from the West/Southwest with gusts up to 23 mph
Temperature 59°F
Humidity 27%
Pressure 30.08 in. Hg
Clear sky

METAR: KFEP 221555Z AUTO 25011G20KT CLR 15/M04 A3008 RMK AO2 T01531038

Time: 11:24 (16:24 UTC)


TAF: missing

Weather observations and forecasts of more than 4000 airports (METAR and TAF reports).

The available stations are represented by yellow and red dots on the map.

Hover mouse over dot to see the name of the station.

Then click to see weather observations and forecasts.

To change the map : click on the green buttons with a black cross to zoom in, on the green button with a dash to zoom out, or on the green arrows for adjacent maps.


METAR-TAF: